QPF
0.00 0.00 0.00 0.00 0.00 0.00 0.00 0.00 0.00 0.00 0.00 0.00 0.00 0.00 0.00 0.00 0.00 0.00 0.00 0.00 0.00 0.00 0.00 0.00 0.00 0.00 0.00 0.00 0.00 0.00 0.00 0.00 0.00 0.00 0.00 0.00 0.00 0.00 0.00 0.00 0.00 0.00
0.00 0.00 0.00 0.00 0.00 0.00 0.00 0.00 0.00 0.00 0.00 0.00 0.00 0.00 0.00 0.00 0.00 0.00 0.00 0.00 0.00 0.00 0.00 0.00 0.00 0.00 0.00 0.00 0.00 0.00 0.00 0.00 0.00 0.00 0.00 0.00 0.00 0.00 0.00 0.00 0.00 0.00
0.00 0.00 0.00 0.00 0.00 0.00 0.00 0.00 0.00 0.00 0.00 0.00 0.00 0.00 0.00 0.00 0.00 0.00 0.00 0.00 0.00 0.00 0.00 0.00 0.00 0.00 0.00 0.00 0.00 0.00 0.00 0.00 0.00 0.00 0.00 0.00 0.00 0.00 0.00 0.00 0.00 0.00
0.00 0.00 0.00 0.00 0.00 0.00 0.00 0.00 0.00 0.00 0.00 0.00 0.00 0.00 0.00 0.00 0.00 0.00 0.00 0.00 0.00 0.00 0.00 0.00 0.00 0.00 0.00 0.00 0.00 0.00 0.00 0.00 0.00 0.00 0.00 0.00 0.00 0.00 0.00 0.00 0.00 0.00
0.00 0.00 0.00 0.00 0.00 0.00 0.00 0.00 0.00 0.00 0.00 0.00 0.00 0.00 0.00 0.00 0.00 0.00 0.00 0.00 0.00 0.00 0.00 0.00 0.00 0.00 0.00 0.00 0.00 0.00 0.00 0.00 0.00 0.00 0.00 0.00 0.00 0.00 0.00 0.00 0.00 0.00
0.00 0.00 0.00 0.00 0.00 0.00 0.00 0.00 0.00 0.00 0.00 0.00 0.00 0.00 0.00 0.00 0.00 0.00 0.00 0.00 0.00 0.00 0.00 0.00 0.00 0.00 0.00 0.00 0.00 0.00 0.00 0.00 0.00 0.00 0.00 0.00 0.00 0.00 0.00 0.00 0.00 0.00
0.00 0.00 0.00 0.00 0.00 0.00 0.00 0.00 0.00 0.00 0.00 0.00 0.00 0.00 0.00 0.00 0.00 0.00 0.00 0.00 0.00 0.00 0.00 0.00 0.00 0.00 0.00 0.00 0.00 0.00 0.00 0.00 0.00 0.00 0.00 0.00 0.00 0.00 0.00 0.00 0.00 0.00
0.00 0.00 0.00 0.00 0.00 0.00 0.00 0.00 0.00 0.00 0.00 0.00 0.00 0.00 0.00 0.00 0.00 0.00 0.00 0.00 0.00 0.00 0.00 0.00 0.00 0.00 0.00 0.00 0.00 0.00 0.00 0.00 0.00 0.00 0.00 0.00 0.00 0.00 0.00 0.00 0.00 0.00
0.00 0.00 0.00 0.00 0.00 0.00 0.00 0.00 0.00 0.00 0.00 0.00 0.00 0.00 0.00 0.00 0.00 0.00 0.00 0.00 0.00 0.00 0.00 0.00 0.00 0.00 0.00 0.00 0.00 0.00 0.00 0.00 0.00 0.00 0.00 0.00 0.00 0.00 0.00 0.00 0.00 0.00
0.00 0.00 0.00 0.00 0.00 0.00 0.00 0.00 0.00 0.00 0.00 0.00 0.00 0.00 0.00 0.00 0.00 0.00 0.00 0.00 0.00 0.00 0.00 0.00 0.00 0.00 0.00 0.00 0.00 0.00 0.00 0.00 0.00 0.00 0.00 0.00 0.00 0.00 0.00 0.00 0.00 0.00
0.00 0.00 0.00 0.00 0.00 0.00 0.00 0.00 0.00 0.00 0.00 0.00 0.00 0.00 0.00 0.00 0.00 0.00 0.00 0.00 0.00 0.00 0.00 0.00 0.00 0.00 0.00 0.00 0.00 0.00 0.00 0.00 0.00 0.00 0.00 0.00 0.00 0.00 0.00 0.00 0.00 0.00
0.00 0.00 0.00 0.00 0.00 0.00 0.00 0.00 0.00 0.00 0.00 0.00 0.00 0.00 0.00 0.00 0.00 0.00 0.00 0.00 0.00 0.00 0.00 0.00 0.00 0.00 0.00 0.00 0.00 0.00 0.00 0.00 0.00 0.00 0.00 0.00 0.00 0.00 0.00 0.00 0.00 0.00
0.00 0.00 0.00 0.00 0.00 0.00 0.00 0.00 0.00 0.00 0.00 0.00 0.00 0.00 0.00 0.00 0.00 0.00 0.00 0.00 0.00 0.00 0.00 0.00 0.00 0.00 0.00 0.00 0.00 0.00 0.00 0.00 0.00 0.00 0.00 0.00 0.00 0.00 0.00 0.00 0.00 0.00
0.00 0.00 0.00 0.00 0.00 0.00 0.00 0.00 0.00 0.00 0.00 0.00 0.00 0.00 0.00 0.00 0.00 0.00 0.00 0.00 0.00 0.00 0.00 0.00 0.00 0.00 0.00 0.00 0.00 0.00 0.00 0.00 0.00 0.00 0.00 0.00 0.00 0.00 0.00 0.00 0.00 0.00
0.00 0.00 0.00 0.00 0.00 0.00 0.00 0.00 0.00 0.00 0.00 0.00 0.00 0.00 0.00 0.00 0.00 0.00 0.00 0.00 0.00 0.00 0.00 0.00 0.00 0.00 0.00 0.00 0.00 0.00 0.00 0.00 0.00 0.00 0.00 0.00 0.00 0.00 0.00 0.00 0.00 0.00
0.00 0.00 0.00 0.00 0.00 0.00 0.00 0.00 0.00 0.00 0.00 0.00 0.00 0.00 0.00 0.00 0.00 0.00 0.00 0.00 0.00 0.00 0.00 0.00 0.00 0.00 0.00 0.00 0.00 0.00 0.00 0.00 0.00 0.00 0.00 0.00 0.00 0.00 0.00 0.00 0.00 0.00
0.00 0.00 0.00 0.00 0.00 0.00 0.00 0.00 0.00 0.00 0.00 0.00 0.00 0.00 0.00 0.00 0.00 0.00 0.00 0.00 0.00 0.00 0.00 0.00 0.00 0.00 0.00 0.00 0.00 0.00 0.00 0.00 0.00 0.00 0.00 0.00 0.00 0.00 0.00 0.00 0.00 0.00
0.00 0.00 0.00 0.00 0.00 0.00 0.00 0.00 0.00 0.00 0.00 0.00 0.00 0.00 0.00 0.00 0.00 0.00 0.00 0.00 0.00 0.00 0.00 0.00 0.00 0.00 0.00 0.00 0.00 0.00 0.00 0.00 0.00 0.00 0.00 0.00 0.00 0.00 0.00 0.00 0.00 0.00
0.00 0.00 0.00 0.00 0.00 0.00 0.00 0.00 0.00 0.00 0.00 0.00 0.00 0.00 0.00 0.00 0.00 0.00 0.00 0.00 0.00 0.00 0.00 0.00 0.00 0.00 0.00 0.00 0.00 0.00 0.00 0.00 0.00 0.00 0.00 0.00 0.00 0.00 0.00 0.00 0.00 0.00
0.00 0.00 0.00 0.00 0.00 0.00 0.00 0.00 0.00 0.00 0.00 0.00 0.00 0.00 0.00 0.00 0.00 0.00 0.00 0.00 0.00 0.00 0.00 0.00 0.00 0.00 0.00 0.00 0.00 0.00 0.00 0.00 0.00 0.00 0.00 0.00 0.00 0.00 0.00 0.00 0.00 0.00
0.00 0.00 0.00 0.00 0.00 0.00 0.00 0.00 0.00 0.00 0.00 0.00 0.00 0.00 0.00 0.00 0.00 0.00 0.00 0.00 0.00 0.00 0.00 0.00 0.00 0.00 0.00 0.00 0.00 0.00 0.00 0.00 0.00 0.00 0.00 0.00 0.00 0.00 0.00 0.00 0.00 0.00
0.00 0.00 0.00 0.00 0.00 0.00 0.00 0.00 0.00 0.00 0.00 0.00 0.00 0.00 0.00 0.00 0.00 0.00 0.00 0.00 0.00 0.00 0.00 0.00 0.00 0.00 0.00 0.00 0.00 0.00 0.00 0.00 0.00 0.00 0.00 0.00 0.00 0.00 0.00 0.00 0.00 0.00
0.00 0.00 0.00 0.00 0.00 0.00 0.00 0.00 0.00 0.00 0.00 0.00 0.00 0.00 0.00 0.00 0.00 0.00 0.00 0.00 0.00 0.00 0.00 0.00 0.00 0.00 0.00 0.00 0.00 0.00 0.00 0.00 0.00 0.00 0.00 0.00 0.00 0.00 0.00 0.00 0.00 0.00
0.00 0.00 0.00 0.00 0.00 0.00 0.00 0.00 0.00 0.00 0.00 0.00 0.00 0.00 0.00 0.00 0.00 0.00 0.00 0.00 0.00 0.00 0.00 0.00 0.00 0.00 0.00 0.00 0.00 0.00 0.00 0.00 0.00 0.00 0.00 0.00 0.00 0.00 0.00 0.00 0.00 0.00
0.00 0.00 0.00 0.00 0.00 0.00 0.00 0.00 0.00 0.00 0.00 0.00 0.00 0.00 0.00 0.00 0.00 0.00 0.00 0.00 0.00 0.00 0.00 0.00 0.00 0.00 0.00 0.00 0.00 0.00 0.00 0.00 0.00 0.00 0.00 0.00 0.00 0.00 0.00 0.00 0.00 0.00
0.00 0.00 0.00 0.00 0.00 0.00 0.00 0.00 0.00 0.00 0.00 0.00 0.00 0.00 0.00 0.00 0.00 0.00 0.00 0.00 0.00 0.00 0.00 0.00 0.00 0.00 0.00 0.00 0.00 0.00 0.00 0.00 0.00 0.00 0.00 0.00 0.00 0.00 0.00 0.00 0.00 0.00
MSLP
1020.23 1020.51 1020.79 1021.15 1021.51 1021.79 1022.15 1022.43 1022.75 1022.83 1023.35 1023.63 1023.59 1024.23 1024.27 1024.59 1024.71 1024.59 1024.75 1024.87 1024.99 1025.07 1025.23 1025.31 1025.39 1025.39 1025.43 1025.51 1025.59 1025.67 1025.87 1025.95 1025.99 1026.07 1026.11 1026.19 1026.27 1026.23 1026.27 1026.31 1026.27 1026.31
1020.31 1020.55 1020.91 1021.35 1021.87 1022.27 1022.51 1022.59 1022.87 1022.95 1023.55 1023.87 1024.19 1024.43 1024.71 1024.63 1024.79 1024.75 1024.79 1024.95 1025.15 1025.31 1025.47 1025.51 1025.55 1025.63 1025.67 1025.83 1025.99 1026.07 1026.23 1026.27 1026.31 1026.31 1026.35 1026.43 1026.51 1026.43 1026.51 1026.47 1026.47 1026.51
1020.51 1020.79 1020.99 1021.19 1021.71 1022.23 1022.55 1022.91 1023.11 1023.47 1023.75 1024.19 1024.39 1024.47 1024.67 1024.83 1024.83 1024.95 1025.03 1025.11 1025.27 1025.47 1025.59 1025.71 1025.75 1025.95 1026.07 1026.19 1026.31 1026.47 1026.63 1026.71 1026.83 1026.83 1026.87 1026.99 1026.95 1026.95 1026.91 1026.91 1026.87 1026.83
1020.79 1020.87 1021.07 1021.55 1021.87 1022.27 1022.71 1022.95 1023.43 1023.75 1024.03 1024.15 1024.43 1024.67 1024.75 1024.91 1024.91 1025.11 1025.31 1025.39 1025.47 1025.67 1025.83 1025.91 1026.07 1026.27 1026.35 1026.55 1026.67 1026.91 1027.03 1027.15 1027.23 1027.23 1027.27 1027.27 1027.31 1027.23 1027.23 1027.23 1027.19 1027.19
1020.87 1021.27 1021.59 1021.83 1022.23 1022.47 1022.67 1022.83 1023.39 1023.79 1024.03 1024.47 1024.71 1024.75 1024.71 1024.91 1025.11 1025.31 1025.43 1025.63 1025.67 1025.83 1026.03 1026.19 1026.35 1026.47 1026.63 1026.79 1026.99 1027.19 1027.43 1027.55 1027.55 1027.63 1027.75 1027.75 1027.63 1027.51 1027.43 1027.31 1027.31 1027.23
1021.39 1021.59 1021.79 1022.03 1022.27 1022.39 1022.79 1023.19 1023.67 1023.95 1024.31 1024.43 1024.63 1024.87 1025.03 1025.15 1025.27 1025.43 1025.55 1025.67 1025.99 1026.11 1026.19 1026.35 1026.43 1026.71 1026.87 1027.03 1027.23 1027.43 1027.59 1027.63 1027.75 1027.79 1027.75 1027.59 1027.47 1027.47 1027.39 1027.31 1027.23 1027.07
1021.55 1021.79 1022.07 1022.31 1022.51 1022.79 1023.11 1023.63 1023.99 1024.23 1024.35 1024.63 1024.91 1025.03 1025.19 1025.27 1025.39 1025.63 1025.79 1025.95 1026.03 1026.15 1026.23 1026.43 1026.63 1026.87 1027.15 1027.19 1027.27 1027.43 1027.71 1027.79 1027.79 1027.75 1027.55 1027.63 1027.67 1027.47 1027.59 1027.51 1027.43 1027.39
1021.79 1022.11 1022.31 1022.55 1022.75 1023.19 1023.51 1023.95 1024.19 1024.31 1024.55 1024.79 1024.87 1025.35 1025.31 1025.43 1025.63 1025.87 1025.95 1025.99 1026.07 1026.35 1026.59 1026.79 1026.95 1027.07 1027.31 1027.35 1027.23 1027.27 1027.35 1027.55 1027.59 1027.59 1027.63 1027.79 1027.99 1027.71 1027.71 1027.79 1027.71 1027.51
1022.07 1022.27 1022.51 1022.71 1022.99 1023.51 1023.79 1024.07 1024.27 1024.55 1024.79 1024.79 1025.11 1025.39 1025.67 1025.67 1025.75 1025.83 1025.99 1026.19 1026.35 1026.63 1026.79 1026.95 1027.03 1027.15 1027.31 1027.11 1027.19 1027.19 1027.27 1027.47 1027.75 1027.83 1027.87 1027.87 1027.87 1027.91 1027.87 1027.87 1027.63 1027.51
1022.23 1022.55 1022.63 1022.91 1023.19 1023.63 1023.75 1024.11 1024.39 1024.71 1024.91 1024.99 1025.27 1025.51 1025.59 1025.87 1025.91 1026.03 1026.23 1026.43 1026.55 1026.75 1026.83 1026.87 1026.95 1027.07 1027.15 1027.31 1027.39 1027.47 1027.47 1027.59 1027.75 1027.87 1027.99 1028.07 1028.07 1028.03 1027.95 1027.87 1027.75 1027.59
1022.43 1022.63 1022.75 1023.07 1023.35 1023.63 1023.87 1024.27 1024.51 1024.75 1024.91 1025.03 1025.27 1025.51 1025.75 1025.87 1026.19 1026.43 1026.51 1026.55 1026.59 1026.75 1026.87 1026.95 1027.11 1027.19 1027.23 1027.43 1027.59 1027.71 1027.71 1027.79 1027.87 1027.95 1028.03 1028.11 1028.19 1028.23 1028.11 1028.03 1027.87 1027.75
1022.59 1022.75 1022.91 1023.15 1023.43 1023.79 1024.07 1024.31 1024.55 1024.71 1024.95 1025.27 1025.31 1025.47 1025.91 1026.19 1026.35 1026.63 1026.63 1026.67 1026.87 1026.95 1026.99 1027.11 1027.23 1027.31 1027.39 1027.47 1027.55 1027.67 1027.75 1027.87 1027.99 1028.03 1028.11 1028.19 1028.23 1028.23 1028.19 1028.11 1028.03 1027.91
1022.67 1022.83 1023.11 1023.39 1023.67 1023.95 1024.23 1024.43 1024.63 1024.95 1025.07 1025.31 1025.63 1025.75 1025.95 1026.27 1026.55 1026.59 1026.87 1026.83 1026.99 1027.07 1027.11 1027.19 1027.31 1027.35 1027.43 1027.51 1027.63 1027.75 1027.83 1027.91 1027.95 1027.99 1028.07 1028.19 1028.31 1028.31 1028.23 1028.15 1028.11 1028.03
1022.91 1023.19 1023.39 1023.67 1023.95 1024.11 1024.31 1024.59 1024.87 1025.11 1025.35 1025.63 1025.79 1025.87 1026.11 1026.31 1026.43 1026.55 1026.95 1026.99 1027.15 1027.19 1027.31 1027.31 1027.31 1027.47 1027.63 1027.71 1027.79 1027.87 1027.95 1027.99 1028.03 1028.07 1028.15 1028.27 1028.39 1028.39 1028.35 1028.27 1028.19 1028.07
1023.19 1023.55 1023.75 1023.91 1024.07 1024.27 1024.51 1024.75 1024.99 1025.31 1025.55 1025.75 1025.91 1026.15 1026.39 1026.55 1026.67 1026.71 1026.75 1026.99 1027.23 1027.27 1027.31 1027.39 1027.51 1027.71 1027.79 1027.79 1027.83 1027.87 1027.99 1028.03 1028.11 1028.19 1028.27 1028.43 1028.51 1028.47 1028.35 1028.27 1028.19 1028.11
1023.39 1023.63 1023.83 1024.03 1024.19 1024.39 1024.67 1024.91 1025.15 1025.39 1025.55 1025.75 1025.99 1026.27 1026.47 1026.63 1026.75 1026.91 1026.95 1027.03 1027.07 1027.31 1027.47 1027.63 1027.83 1027.91 1027.83 1027.79 1027.79 1027.91 1027.99 1028.11 1028.23 1028.35 1028.51 1028.63 1028.67 1028.59 1028.43 1028.27 1028.19 1028.11
1023.51 1023.75 1023.95 1024.15 1024.43 1024.67 1024.87 1025.03 1025.27 1025.43 1025.63 1025.83 1026.11 1026.31 1026.43 1026.71 1026.79 1026.87 1027.07 1027.19 1027.23 1027.43 1027.67 1027.91 1028.07 1028.03 1027.87 1027.87 1027.87 1027.87 1027.99 1028.27 1028.47 1028.55 1028.63 1028.71 1028.67 1028.59 1028.47 1028.35 1028.27 1028.15
1023.55 1023.83 1024.03 1024.35 1024.51 1024.67 1024.91 1025.19 1025.35 1025.47 1025.63 1025.91 1026.15 1026.27 1026.63 1026.79 1026.79 1027.07 1027.23 1027.35 1027.51 1027.71 1027.87 1028.07 1028.15 1028.03 1027.91 1027.95 1027.95 1027.95 1028.19 1028.59 1028.71 1028.79 1028.79 1028.75 1028.71 1028.63 1028.59 1028.51 1028.43 1028.23
1023.63 1023.75 1023.99 1024.27 1024.55 1024.79 1025.03 1025.19 1025.23 1025.43 1025.67 1025.87 1026.11 1026.67 1026.75 1026.63 1027.03 1027.11 1027.31 1027.59 1027.63 1027.75 1027.99 1028.19 1028.23 1028.07 1028.03 1028.03 1028.07 1028.15 1028.39 1028.75 1028.87 1028.91 1028.91 1028.87 1028.75 1028.71 1028.67 1028.63 1028.55 1028.39
1023.59 1023.75 1023.99 1024.39 1024.71 1024.95 1025.03 1025.07 1025.11 1025.39 1025.95 1026.31 1026.55 1026.71 1026.67 1026.87 1027.11 1027.23 1027.55 1027.71 1027.87 1027.95 1028.11 1028.23 1028.31 1028.15 1028.11 1028.15 1028.23 1028.31 1028.47 1028.75 1028.99 1028.99 1028.95 1028.87 1028.79 1028.79 1028.71 1028.67 1028.55 1028.43
1023.55 1023.75 1024.07 1024.55 1024.83 1024.99 1025.07 1025.19 1025.43 1025.79 1026.03 1026.35 1026.47 1026.59 1026.67 1026.79 1027.07 1027.27 1027.63 1027.79 1027.91 1028.03 1028.11 1028.27 1028.35 1028.23 1028.23 1028.27 1028.35 1028.35 1028.51 1028.83 1029.03 1029.03 1028.95 1028.91 1028.87 1028.83 1028.71 1028.59 1028.47 1028.35
1023.39 1023.71 1024.15 1024.51 1024.79 1024.95 1025.07 1025.39 1025.75 1025.87 1025.99 1026.47 1026.67 1026.95 1027.19 1027.27 1027.43 1027.55 1027.59 1027.75 1027.95 1028.03 1028.19 1028.39 1028.55 1028.47 1028.43 1028.43 1028.39 1028.31 1028.55 1028.95 1029.03 1029.11 1029.07 1029.03 1028.95 1028.83 1028.67 1028.51 1028.35 1028.23
1023.35 1023.59 1024.03 1024.39 1024.67 1024.75 1025.11 1025.51 1025.79 1026.15 1026.35 1026.47 1026.51 1026.87 1027.07 1027.31 1027.47 1027.59 1027.75 1027.87 1028.07 1028.23 1028.31 1028.59 1028.79 1028.79 1028.59 1028.43 1028.35 1028.27 1028.63 1028.95 1029.11 1029.23 1029.23 1029.07 1028.87 1028.71 1028.55 1028.43 1028.27 1028.15
1023.31 1023.55 1023.79 1024.23 1024.47 1024.63 1025.11 1025.67 1026.07 1026.27 1026.39 1026.47 1026.31 1026.71 1027.07 1027.39 1027.51 1027.71 1027.99 1028.11 1028.23 1028.39 1028.55 1028.83 1029.03 1028.91 1028.67 1028.47 1028.39 1028.39 1028.59 1028.95 1029.15 1029.27 1029.23 1028.95 1028.83 1028.63 1028.51 1028.39 1028.23 1028.15
1023.43 1023.63 1023.79 1024.03 1024.39 1024.95 1025.31 1025.59 1025.91 1026.15 1026.55 1026.67 1026.79 1026.95 1027.23 1027.51 1027.63 1027.83 1028.15 1028.39 1028.51 1028.67 1028.79 1028.99 1029.07 1029.07 1028.87 1028.55 1028.43 1028.47 1028.59 1028.87 1029.03 1029.11 1029.07 1028.91 1028.79 1028.71 1028.51 1028.31 1028.23 1028.11
1023.55 1023.71 1023.95 1024.11 1024.55 1025.23 1025.63 1025.83 1026.19 1026.39 1026.55 1026.71 1027.03 1027.15 1027.35 1027.67 1027.91 1028.07 1028.23 1028.47 1028.67 1028.79 1028.95 1029.03 1029.19 1029.19 1028.95 1028.55 1028.51 1028.59 1028.59 1028.75 1028.91 1028.91 1028.83 1028.79 1028.79 1028.71 1028.55 1028.31 1028.07 1027.91
Thickness
5679 5676 5673 5670 5667 5664 5661 5657 5655 5652 5649 5646 5643 5640 5637 5635 5633 5632 5630 5627 5624 5622 5618 5616 5613 5610 5607 5604 5600 5597 5593 5590 5586 5583 5580 5577 5574 5571 5568 5565 5562 5558
5675 5672 5669 5666 5662 5658 5656 5653 5650 5648 5643 5640 5638 5634 5632 5630 5628 5627 5625 5621 5619 5616 5613 5610 5607 5604 5600 5596 5593 5589 5585 5582 5579 5575 5573 5570 5567 5564 5561 5558 5555 5551
5670 5668 5666 5662 5658 5654 5651 5648 5645 5642 5638 5635 5633 5630 5627 5625 5623 5621 5619 5616 5613 5610 5606 5604 5600 5597 5593 5589 5586 5582 5578 5575 5571 5568 5566 5562 5559 5556 5553 5550 5546 5543
5666 5663 5661 5657 5654 5650 5647 5643 5639 5636 5633 5629 5627 5625 5623 5620 5618 5616 5613 5610 5607 5603 5600 5597 5593 5590 5586 5583 5579 5575 5571 5567 5563 5560 5557 5554 5551 5548 5545 5542 5539 5535
5660 5658 5655 5652 5649 5645 5642 5639 5634 5630 5627 5624 5621 5620 5618 5615 5612 5609 5606 5603 5600 5597 5592 5589 5585 5583 5579 5576 5572 5567 5563 5559 5556 5553 5549 5546 5543 5541 5538 5535 5532 5528
5654 5652 5649 5646 5643 5640 5637 5632 5628 5625 5622 5619 5617 5614 5611 5609 5606 5603 5600 5596 5593 5589 5586 5582 5579 5575 5572 5568 5564 5560 5555 5552 5548 5545 5542 5539 5536 5534 5531 5528 5525 5522
5648 5645 5642 5640 5636 5633 5630 5625 5622 5620 5617 5614 5611 5608 5606 5603 5600 5596 5593 5590 5586 5582 5579 5576 5572 5568 5565 5562 5558 5553 5549 5545 5542 5538 5535 5532 5529 5527 5524 5520 5517 5514
5641 5639 5636 5633 5630 5626 5622 5619 5616 5613 5611 5608 5605 5601 5600 5597 5593 5590 5586 5584 5580 5576 5572 5569 5565 5562 5559 5555 5552 5549 5545 5540 5536 5532 5529 5525 5521 5519 5516 5512 5509 5506
5634 5632 5629 5627 5623 5619 5616 5613 5610 5607 5605 5602 5598 5595 5593 5590 5587 5584 5580 5576 5573 5569 5566 5563 5560 5557 5553 5550 5547 5543 5539 5534 5529 5525 5521 5517 5513 5510 5508 5504 5501 5498
5628 5625 5623 5620 5616 5613 5611 5607 5604 5601 5598 5596 5592 5589 5586 5583 5580 5577 5573 5570 5567 5563 5560 5557 5554 5551 5548 5544 5540 5536 5532 5527 5522 5518 5514 5509 5506 5502 5500 5497 5494 5490
5621 5619 5616 5614 5610 5607 5604 5601 5598 5595 5592 5590 5586 5582 5579 5576 5572 5569 5566 5563 5560 5557 5554 5551 5548 5545 5541 5538 5533 5529 5525 5520 5515 5510 5506 5502 5498 5495 5492 5489 5485 5482
5614 5612 5610 5607 5604 5601 5597 5594 5591 5589 5585 5582 5579 5576 5572 5568 5565 5562 5560 5557 5554 5551 5548 5545 5541 5538 5535 5531 5527 5523 5518 5513 5508 5503 5499 5495 5490 5487 5484 5481 5477 5473
5608 5605 5602 5599 5596 5593 5590 5588 5584 5581 5578 5575 5572 5569 5565 5561 5559 5555 5553 5551 5547 5544 5541 5538 5535 5532 5528 5524 5520 5516 5511 5506 5502 5497 5492 5487 5482 5479 5476 5472 5469 5465
5600 5597 5595 5592 5589 5586 5583 5580 5577 5574 5571 5568 5565 5562 5558 5555 5552 5549 5546 5543 5540 5537 5534 5531 5528 5524 5520 5516 5512 5508 5503 5498 5495 5490 5485 5480 5474 5470 5468 5464 5461 5458
5592 5589 5587 5584 5582 5579 5576 5573 5570 5567 5564 5561 5557 5554 5551 5547 5545 5542 5539 5536 5533 5530 5527 5524 5521 5516 5512 5509 5504 5499 5496 5490 5487 5482 5477 5472 5467 5462 5460 5457 5454 5451
5585 5582 5579 5577 5575 5572 5568 5566 5563 5559 5557 5553 5550 5546 5543 5540 5538 5535 5532 5529 5526 5522 5519 5515 5511 5507 5504 5501 5496 5492 5488 5483 5478 5474 5469 5464 5461 5457 5453 5451 5447 5443
5578 5575 5573 5570 5567 5564 5562 5558 5555 5552 5549 5546 5542 5539 5535 5533 5530 5527 5524 5521 5518 5514 5510 5506 5502 5499 5496 5492 5489 5485 5480 5475 5469 5466 5461 5457 5454 5451 5447 5444 5440 5436
5571 5568 5566 5563 5560 5557 5555 5551 5548 5545 5542 5538 5534 5530 5528 5525 5522 5519 5516 5513 5510 5505 5501 5498 5494 5491 5488 5484 5481 5477 5472 5467 5462 5457 5454 5450 5447 5443 5440 5436 5432 5429
5565 5562 5559 5556 5554 5550 5547 5544 5542 5539 5535 5531 5527 5522 5520 5518 5514 5511 5508 5504 5501 5497 5493 5489 5485 5483 5480 5476 5472 5468 5463 5458 5454 5450 5446 5443 5440 5436 5432 5428 5424 5421
5558 5556 5553 5549 5546 5543 5540 5538 5535 5531 5526 5523 5519 5515 5513 5510 5506 5502 5499 5495 5492 5489 5484 5481 5478 5474 5472 5468 5464 5460 5456 5450 5446 5443 5439 5436 5433 5428 5424 5420 5416 5412
5552 5549 5546 5542 5538 5535 5533 5530 5527 5523 5519 5515 5511 5508 5504 5501 5498 5494 5490 5487 5484 5481 5477 5472 5469 5467 5463 5460 5457 5453 5448 5444 5439 5435 5432 5428 5424 5420 5417 5413 5409 5405
5546 5543 5538 5534 5531 5528 5525 5522 5518 5514 5511 5508 5504 5500 5496 5492 5489 5485 5482 5478 5475 5472 5469 5465 5461 5459 5455 5452 5450 5447 5441 5436 5432 5428 5425 5420 5417 5412 5409 5405 5401 5397
5540 5536 5532 5528 5525 5522 5518 5513 5510 5506 5503 5501 5497 5492 5488 5484 5481 5477 5473 5470 5466 5463 5461 5457 5452 5450 5448 5445 5443 5440 5435 5430 5425 5420 5416 5413 5409 5405 5401 5397 5393 5389
5533 5529 5526 5522 5518 5514 5510 5505 5501 5498 5494 5493 5490 5485 5480 5476 5473 5469 5464 5461 5458 5454 5451 5448 5444 5441 5440 5437 5435 5433 5429 5423 5418 5413 5409 5406 5402 5398 5394 5389 5385 5380
5525 5522 5519 5516 5511 5506 5502 5498 5494 5490 5486 5483 5481 5477 5472 5468 5464 5461 5456 5452 5449 5446 5443 5439 5436 5433 5431 5430 5428 5425 5421 5416 5411 5407 5403 5399 5395 5391 5387 5382 5377 5372
5517 5514 5511 5508 5503 5498 5493 5490 5486 5482 5478 5475 5472 5468 5463 5459 5455 5452 5448 5444 5440 5438 5435 5432 5428 5425 5424 5422 5420 5416 5413 5409 5404 5400 5397 5393 5388 5384 5379 5375 5370 5365